Buffalo, SD

6:59 AM MST on February 26, 2017 (GMT -0700)
Buffalo

Weather History for K2WX - November, 2011

Change the Weather History Date:

Monday, November 21, 2011

  Actual Average Record
Temperature  
Mean Temperature 21 °F 29 °F  
Max Temperature 40 °F 39 °F 68 °F (2012)
Min Temperature 2 °F 18 °F 0 °F (1996)
Degree Days  
Heating Degree Days 44 36  
Month to date heating degree days 721 649  
Since 1 July heating degree days 1393 1550  
Cooling Degree Days 0 0  
Month to date cooling degree days 0 0  
Year to date cooling degree days 554 513  
Moisture  
Dew Point 17 °F    
Average Humidity 78    
Maximum Humidity 96    
Minimum Humidity 59    
Precipitation  
Precipitation 0.00 in 0.01 in 0.16 in (2008)
Month to date precipitation 0.19 0.30  
Year to date precipitation 18.43 14.22  
Sea Level Pressure  
Sea Level Pressure 30.03 in    
Wind  
Wind Speed 6 mph (SSW)    
Max Wind Speed 13 mph    
Max Gust Speed 16 mph    
T = Trace of Precipitation, MM = Missing Value Source: NWS Daily Summary

Daily Weather History Graph

Daily Weather History Graph

Search for Another Location

Airport or City:

Trip Planner

Search our weather history database for the weather conditions in past years. The results will help you decide how hot, cold, wet, or windy it might be!

Date:

Astronomy

Nov. 21, 2011 Rise Set
Actual Time 7:01 AM MST 4:18 PM MST
Civil Twilight 6:28 AM MST 4:50 PM MST
Nautical Twilight 5:52 AM MST 5:27 PM MST
Astronomical Twilight 5:16 AM MST 6:02 PM MST
Moon 2:32 AM MST (11/21) 1:50 PM MST (11/21)
Length of Visible Light 10h 22m
Length of Day
9h 17m
Waning Crescent, 17% of the Moon is Illuminated
Nov 21
Waning Crescent
Nov 24
New
Dec 2
First Quarter
Dec 10
Full
Dec 17
Last Quarter

Hourly Weather History & Observations

Time (MST) Temp. Windchill Dew Point Humidity Pressure Visibility Wind Dir Wind Speed Gust Speed Precip Events Conditions
12:56 AM 7.0 °F -3.3 °F 5.0 °F 92% 30.08 in - WNW 5.8 mph - N/A   Unknown
1:56 AM 9.0 °F 2.4 °F 5.0 °F 84% 30.07 in - SW 3.5 mph - N/A   Unknown
2:56 AM 3.0 °F -6.4 °F -0.9 °F 84% 30.08 in - WNW 4.6 mph - N/A   Unknown
3:56 AM 10.0 °F - 7.0 °F 87% 30.08 in - Calm Calm - N/A   Unknown
4:56 AM 10.9 °F 4.7 °F 8.1 °F 88% 30.08 in - SSW 3.5 mph - N/A   Unknown
5:56 AM 10.0 °F - 6.1 °F 84% 30.09 in - Calm Calm - N/A   Unknown
6:56 AM 7.0 °F -1.7 °F 3.9 °F 87% 30.12 in - Variable 4.6 mph - N/A   Unknown
7:56 AM 9.0 °F 0.6 °F 5.0 °F 84% 30.11 in - WSW 4.6 mph - N/A   Unknown
8:56 AM 18.0 °F - 14.0 °F 84% 30.08 in - Calm Calm - N/A   Unknown
9:56 AM 24.1 °F 19.7 °F 19.0 °F 81% 30.08 in - SSE 3.5 mph - N/A   Unknown
10:56 AM 30.9 °F 23.5 °F 24.1 °F 76% 30.05 in - SSE 8.1 mph - N/A   Unknown
11:56 AM 36.0 °F 29.0 °F 25.0 °F 64% 30.01 in - South 9.2 mph - N/A   Unknown
12:56 PM 39.0 °F 32.3 °F 26.1 °F 60% 29.99 in - SSE 10.4 mph - N/A   Unknown
1:56 PM 39.9 °F 34.5 °F 26.1 °F 58% 29.96 in - South 8.1 mph - N/A   Unknown
2:56 PM 39.0 °F 32.8 °F 26.1 °F 60% 29.97 in - SSE 9.2 mph - N/A   Unknown
3:56 PM 35.1 °F 27.4 °F 26.1 °F 70% 29.97 in - SSE 10.4 mph - N/A   Unknown
4:56 PM 30.0 °F 21.1 °F 24.1 °F 79% 29.97 in - SSE 10.4 mph - N/A   Unknown
5:56 PM 26.1 °F 16.2 °F 21.9 °F 84% 29.99 in - South 10.4 mph - N/A   Unknown
6:56 PM 24.1 °F 16.0 °F 21.0 °F 88% 29.99 in - South 6.9 mph - N/A   Unknown
7:56 PM 23.0 °F 13.9 °F 21.0 °F 92% 30.01 in - South 8.1 mph - N/A   Unknown
8:56 PM 21.9 °F 13.4 °F 19.9 °F 92% 29.99 in - South 6.9 mph - N/A   Unknown
9:56 PM 21.0 °F 16.2 °F 19.0 °F 92% 29.98 in - WSW 3.5 mph - N/A   Unknown
10:56 PM 24.1 °F 19.7 °F 21.9 °F 91% 29.97 in - West 3.5 mph - N/A   Unknown
11:56 PM 26.1 °F - 21.9 °F 84% 29.96 in - Calm Calm - N/A   Unknown